Flag for U.S.A. Weather past 2 weeks in Salem, Oregon, U.S.A.

Now
67 °F

Passing clouds.


Feels Like: 67 °F
Forecast: 47 / 68 °F
Wind: 8 mph from Northeast

Location: McNary Field

Current Time: Oct 1, 2014 at 3:50:23 PM

Latest Report: Oct 1, 2014 at 2:56 PM


Visibility: 10 mi

Pressure: 30.19 "Hg

Humidity: 44%

Dew point: 44 °F

Location of SalemLocation

Historic Weather in Salem — Graph

°F

Salem temperature yesterday

Maximum temperature yesterday: 69 °F (at 2:56 PM)
Minimum temperature yesterday: 53 °F (at 10:56 PM)
Average temperature yesterday: 60 °F

Past Weeks' High & Low Weather Summary

 TemperatureHumidityPressure
High95 °F (Sep 20, 4:56 PM)97% (Sep 23, 3:56 AM)30.24 "Hg (Sep 23, 3:56 AM)
Low48 °F (Oct 1, 3:56 AM)24% (Sep 20, 4:56 PM)29.68 "Hg (Sep 17, 4:56 PM)
Average64 °F72%29.93 "Hg
* Reported Sep 16 2:56 PM — Oct 1 2:56 PM, Salem, Weather by CustomWeather, © 2014

Note: Actual official high and low records may vary slightly from our data, if they occured in-between our weather recording intervals... More about our weather records

Advertising

Salem weather history for previous 24 hours

 ConditionsComfort  
Time TempWeatherWind HumidityBarometerVisibility
2:56 PM
Oct 1
67 °FPassing clouds.8 mph44%30.19 "Hg10 mi
1:56 PM66 °FScattered clouds.10 mph47%30.20 "Hg10 mi
12:56 PM66 °FPartly sunny.7 mph49%30.22 "Hg10 mi
11:56 AM64 °FPartly sunny.8 mph54%30.23 "Hg10 mi
10:56 AM61 °FScattered clouds.3 mph65%30.24 "Hg10 mi
9:56 AM57 °FSunny.No wind78%30.24 "Hg10 mi
8:56 AM52 °FPassing clouds.5 mph89%30.24 "Hg10 mi
7:56 AM49 °FPassing clouds.3 mph93%30.24 "Hg10 mi
6:56 AM48 °FFog.3 mph93%30.23 "Hg6 mi
5:56 AM48 °FPassing clouds.No wind89%30.22 "Hg10 mi
4:56 AM48 °FPassing clouds.No wind93%30.22 "Hg9 mi
3:56 AM48 °FClear.No wind93%30.21 "Hg10 mi
2:56 AM49 °FMostly cloudy.3 mph93%30.20 "Hg10 mi
1:56 AM50 °FClear.No wind93%30.20 "Hg10 mi
12:56 AM50 °FClear.No wind93%30.19 "Hg10 mi
11:56 PM
Sep 30
53 °FClear.No wind89%30.19 "Hg10 mi
10:56 PM53 °FClear.No wind86%30.18 "Hg10 mi
9:56 PM58 °FPassing clouds.5 mph75%30.17 "Hg10 mi
8:56 PM59 °FClear.8 mph75%30.17 "Hg10 mi
7:56 PM61 °FPassing clouds.6 mph67%30.15 "Hg10 mi
6:56 PM64 °FCloudy.12 mph56%30.14 "Hg10 mi
5:56 PM67 °FPartly sunny.10 mph47%30.13 "Hg10 mi
4:56 PM64 °FOvercast.3 mph65%30.13 "Hg10 mi
3:56 PM68 °FBroken clouds.10 mph45%30.12 "Hg10 mi
Weather by CustomWeather, © 2014

See weather overviewHow to use our weather pages